Regional Weather Roundup
Issued by NWS Grand Forks, ND

Home | Current Version | Previous Version | Graphics & Text | Print | Product List | Glossary On
Versions: 1 2 3 4 5 6 7 8 9 10 11 12 13 14 15 16 17 18 19 20 21 22 23 24 25 26 27 28 29 30 31 32 33 34 35 36 37 38 39 40 41 42 43 44 45 46 47 48 49 50
000
ASUS43 KFGF 212010
RWRFGF
PRAIRIE TO PINES  WEATHER ROUNDUP
NATIONAL WEATHER SERVICE EASTERN NORTH DAKOTA/GRAND FORKS ND
300 PM CDT THU SEP 21 2017

 **SATELLITE DATA USED TO AUGMENT SKY COVER AT AUTOMATED STATIONS**
 *****  WEATHER ACROSS EASTERN NORTH DAKOTA  *****

CITY           SKY/WX    TMP DP  RH WIND       PRES   REMARKS
GRAND FORKS    FAIR      79  48  33 S17G25    29.71F
GRAND FRKS AFB FAIR      78  45  30 S18G25    29.71F
DEVILS LAKE    FAIR      76  53  44 S22G29    29.68F
FARGO          FAIR      80  42  25 SE18G26   29.71F
WAHPETON ARPT  MOCLDY    79  46  31 SE15G25   29.73F
$$

 ***** WEATHER ACROSS CENTRAL AND WESTERN NORTH DAKOTA  *****

CITY           SKY/WX    TMP DP  RH WIND       PRES   REMARKS
BISMARCK       FAIR      80  54  40 SW12      29.63F
MINOT          FAIR      70  46  42 VRB3      29.68F
JAMESTOWN      FAIR      80  49  33 S17G24    29.66F
MINOT AFB      FAIR      67  44  43 E7        29.67F
GARRISON         N/A     70  44  39 VRB6      29.67F
WILLISTON      CLOUDY    57  42  57 NW7       29.76R
DICKINSON      FAIR      69  43  38 NW10G20   29.71S
HETTINGER      FAIR      71  38  29 N15       29.71R
$$

 *****  OTHER AIRPORT OBSERVATIONS IN OUR AREA  *****

CITY           SKY/WX    TMP DP  RH WIND       PRES   REMARKS
WALHALLA       FAIR     N/A N/A N/A SE13      29.70F
GRAFTON AIRPOR FAIR      77  46  33 S17G25    29.72F
VALLEY CITY AR FAIR      79  48  34 SE17G25   29.70F
CANDO          FAIR      77  50  38 S17G25    29.68F
CAVALIER APRT  FAIR      75  48  38 S16G23    29.68F
GWINNER        PTCLDY    79  50  36 SE15      29.69F
SHEYENNE NWR     N/A     80  49  33 SE14      29.95S
ROLLA          CLOUDY    63  48  59 NE6       29.72F
 ***** THE ABOVE OBSERVATIONS ARE NON NWS ARE NOT QUALITY
       CONTROLLED AND MAY MIS-REPORT RAIN FOR SNOW...
$$

  *****  WEATHER ACROSS NORTHERN MINNESOTA  *****

CITY           SKY/WX    TMP DP  RH WIND       PRES   REMARKS
FLAG ISLAND    FAIR      68  50  52 S10       29.80F
WARROAD        FAIR      75  46  35 S14G21    29.79F
ROSEAU         FAIR      75  43  31 S13       29.78F
HALLOCK        CLOUDY    79  43  27 S20       29.72F
THF RVR FALLS  FAIR      79  43  27 S15G22    29.77F
BAUDETTE       FAIR      75  46  35 SE14G23   29.82F
WASKISH        PTSUNNY   73  48  40 SE14G23   29.83F
CROOKSTON      FAIR      79  45  29 S17G26    29.73F
$$
  *****  WEATHER ACROSS CENTRAL AND WEST MINNESOTA  *****

CITY           SKY/WX    TMP DP  RH WIND       PRES   REMARKS
FOSSTON        FAIR      75  46  35 SE14G24   29.79F
BEMIDJI        FAIR      72  49  44 SE23G29   29.83F
PARK RAPIDS    FAIR      75  47  36 SE16      29.81F
ELBOW LAKE     FAIR      76  60  56 E16       29.75F
WADENA         FAIR      75  50  41 SE16      29.79F
DETROIT LAKES  FAIR      73  46  38 SE16      29.78F
MOORHEAD       FAIR      81  41  24 SE16G24   29.73F
FERGUS FALLS   FAIR      79  52  38 SE12G18   29.74F
MORRIS MN      FAIR      81  63  54 S22G28    29.73F
STAPLES        NOT AVBL
$$
  *****  WEATHER ELSEWHERE ACROSS MINNESOTA  *****

CITY           SKY/WX    TMP DP  RH WIND       PRES   REMARKS
DULUTH         FAIR      69  57  65 E12       29.94F
INTRNTL FALLS  FAIR      71  48  43 SE18      29.89F
ELY            FAIR      72  46  40 SE12      29.94F
CLOQUET        FAIR      68  55  64 E8        29.93S
WHEATON        PTSUNNY   79  59  50 SE15      29.73F
BRAINERD       FAIR      73  50  44 SE9       29.85F
HIBBING        FAIR      71  45  39 SE15      29.93F
ALEXANDRIA     FAIR      78  59  51 SE17G24   29.80F
SAINT CLOUD    FAIR      78  62  57 SE15      29.82F
MINNEAPOLIS    FAIR      81  68  64 SE17G24   29.85F
$$

  *****  WEATHER ACROSS SOUTH DAKOTA  *****

CITY           SKY/WX    TMP DP  RH WIND       PRES   REMARKS
SIOUX FALLS    PTSUNNY   84  73  69 S18G35    29.71F HX  90
BROOKINGS      PTSUNNY   82  71  69 S24G35    29.72F
WATERTOWN      PTSUNNY   79  69  71 S17G26    29.70F
HURON          FAIR      81  67  62 S14G24    29.65F
SISSETON         N/A     79  60  52 S13G22    29.70F
ABERDEEN       FAIR      84  66  54 S25G33    29.64F
MITCHELL       FAIR      85  68  56 S18G25    29.66F
PIERRE         FAIR      87  55  33 S17G29    29.59F
MOBRIDGE       FAIR      86  59  39 S14G23    29.59F
RAPID CITY     SUNNY     77  39  25 N13G18    29.69R
$$

  *****  SOME WEATHER IN NEARBY STATES *****

CITY           SKY/WX    TMP DP  RH WIND       PRES   REMARKS
GLASGOW MT     FAIR      58  33  39 NW12      29.79S
GREAT FALLS MT FAIR      52  26  36 CALM      29.84R
CHEYENNE WY    FAIR      82  16   8 S12G17    29.79F
SCOTTSBLUFF NE FAIR      84  46  26 E13       29.66F
OMAHA NE       FAIR      91  72  53 S25       29.76F HX  98
DES MOINES IA  FAIR      88  72  58 S20       29.85F HX  94
DAVENPORT IA   FAIR      83  65  54 SE12      29.99R
CHICAGO IL     PTSUNNY   94  61  33 S8        29.99F HX  94
EAU CLAIRE WI  PTSUNNY   76  67  73 SE13      29.91F
LA CROSSE WI   NOT AVBL
$$

  *****  SOME NATIONAL WEATHER *****

CITY           SKY/WX    TMP DP  RH WIND       PRES   REMARKS
LA GUARDIA NY  CLOUDY    79  64  60 N13       29.97F
RALEIGH NC     PTSUNNY   86  66  51 E5        30.01S THUNDER
ATLANTA GA     PTSUNNY   88  65  46 W5        30.03F HX  90
NEW ORLEANS LA FAIR      90  70  51 N3        29.97F HX  95
OKLAHOMA CITY  PTSUNNY   91  71  51 S18G26    29.87F HX  97
ALBUQUERQUE NM FAIR      82  30  15 S10G22    29.98F
SALT LAKE CITY PTSUNNY   57  42  57 NW20      29.73F
LOS ANGELES CA PTSUNNY   71  57  61 W16       29.85F
BOISE ID       FAIR      55  38  52 NW13      29.82F
SEATTLE WA     PTSUNNY   56  48  74 W3        29.95S
$$

*** WEATHER ACROSS MANITOBA...SASKATCHEWAN AND ONTARIO ***
                ***ONTARIO***

CITY           SKY/WX    TMP DP  RH WIND       PRES   REMARKS
GERALDTON      MOSUNNY   70  41  35 SE8       30.06F
THUNDER BAY    SUNNY     68  55  64 E9        30.02F
SIOUX LOOKOUT  MOSUNNY   70  45  40 SE12G18   29.92F
TORONTO        SUNNY     81  61  50 SE7       30.10F
BIG TROUT LK   PTSUNNY   66  48  52 SW10      29.85R
PICKLE LAKE    PTSUNNY   64  46  52 S8        29.96F
DRYDEN         SUNNY     70  46  43 SE13G22   29.90F
KENORA         MOSUNNY   73  43  33 S10G21    29.83F
$$
                *** MANITOBA***

CITY           SKY/WX    TMP DP  RH WIND       PRES   REMARKS
BRANDON        LGT RAIN  55  54  94 SE9       29.72S
DAUPHIN        PTSUNNY   64  45  48 W6        29.68F
ISLAND LAKE    CLOUDY    61  46  59 S13       29.72R
PILOT MOUND      N/A     66  48  52 W3          N/A
THE PAS        MOSUNNY   61  37  41 W16       29.64R
THOMPSON       PTSUNNY   61  43  51 SW10G17   29.58S
WINNIPEG       PTSUNNY   72  50  46 S10G18    29.73F
LYNN LAKE      LGT RAIN  43  41  93 N10       29.62R
CHURCHILL      PTSUNNY   59  46  63 SW7       29.61R
GILLAM         MOSUNNY   66  45  45 S16G23    29.60F
$$
                ***SASKATCHEWAN***

CITY           SKY/WX    TMP DP  RH WIND       PRES   REMARKS
ESTEVAN        PTSUNNY   63  34  34 NW10      29.73R
KINDERSLEY     CLOUDY    45  34  65 W13G21    29.76R
LLOYDMINSTER   CLOUDY    43  37  81 NW10      29.76R
PRINCE ALBERT  PTSUNNY   52  39  62 W8        29.71R
REGINA         MOSUNNY   55  39  54 W12G18    29.75S
YORKTON        SUNNY     63  36  36 NW3       29.70F
N. BATTLEFORD  CLOUDY    46  39  76 NW14      29.74R
LA RONGE       DRIZZLE   48  43  81 NW10      29.69R
SASKATOON      CLOUDY    48  37  66 SW13      29.75R
SWIFT CURRENT  MOSUNNY   52  32  46 W20G26    29.78R
$$
NOTE: THESE ARE AUTOMATED STATIONS WITH LIMITED QUALITY CONTROL
      "FAIR" INDICATES FEW OR NO CLOUDS BELOW 12,000 FEET WITH NO
      SIGNIFICANT WEATHER AND/OR OBSTRUCTIONS TO VISIBILITY.
      SKY/WX - SKY CONDITION AND SIGNIFICANT WEATHER.
      TMP - AIR TEMPERATURE.    DP   - DEWPOINT TEMPERATURE.
      RH  - RELATIVE HUMIDITY.  PRES - PRESSURE.
      HX  - HEAT INDEX.         WCI  - WIND CHILL INDEX.
$




USA.gov is the U.S. government's official web portal to all federal, state and local government web resources and services.